Location: Hains Lake
(37.8540°N, 99.8578°W)
Time: 11:18:12
(UTC+00:00)

Tiros 1 despin weight - Pass Details

Date: 27 April 2021
Orbit: 593 x 642 km, 48.2° (Epoch: 07 May)

Event Time Altitude Azimuth Distance (km) Brightness Sun altitude
Rises 08:39:36 0° 233° (SW) 2,930 - -30.8°
Reaches altitude 10° 08:41:56 10° 233° (SW) 2,020 - -30.5°
Maximum altitude 08:46:36 85° 147° (SSE) 641 - -29.9°
Exits shadow 08:48:15 40° 60° (ENE) 933 ? -29.7°
Drops below altitude 10° 08:51:14 10° 57° (ENE) 2,007 ? -29.4°
Sets 08:53:33 0° 57° (ENE) 2,909 ? -29.1°
